Location: Boissi�res
(45.2500°N, 2.3667°E)
Time: 18:02:14
(UTC+00:00)

BREEZE-M DEB (TANK) - Pass Details

Date: 03 March 2021
Orbit: 334 x 11905 km, 49.7° (Epoch: 18 April)

Event Time Altitude Azimuth Distance (km) Brightness Sun altitude
Rises 18:58:01 0° 213° (SSW) 2,277 7.0 -14.4°
Reaches altitude 10° 19:00:13 10° 194° (SSW) 1,270 5.4 -14.8°
Enters shadow 19:01:37 20° 159° (SSE) 859 4.2 -15.0°
